Weather History for Big Delta, AK

Change the Weather History Date:

Friday, September 13, 2013

  Actual Average Record
Temperature  
Mean Temperature 49 °F -  
Max Temperature 61 °F 50 °F 72 °F (2014)
Min Temperature 37 °F 33 °F 28 °F (2003)
Degree Days  
Heating Degree Days 16    
Moisture  
Dew Point 35 °F    
Average Humidity 60    
Maximum Humidity 86    
Minimum Humidity 23    
Precipitation  
Precipitation 0.00 in - - ()
Sea Level Pressure  
Sea Level Pressure 29.94 in    
Wind  
Wind Speed 6 mph (South)    
Max Wind Speed 23 mph    
Max Gust Speed 33 mph    
Visibility 10 miles    
Events      
Averages and records for this station are not official NWS values.
T = Trace of Precipitation, MM = Missing Value Source: NWS Daily Summary

Daily Weather History Graph

Daily Weather History Graph

Search for Another Location

Airport:

Trip Planner

Search our weather history database for the weather conditions in past years. The results will help you decide how hot, cold, wet, or windy it might be!

Date:

Astronomy

Sep. 13, 2013 Rise Set
Actual Time 7:01 AM AKDT 8:13 PM AKDT
Civil Twilight 6:12 AM AKDT 9:02 PM AKDT
Nautical Twilight 5:10 AM AKDT 10:04 PM AKDT
Astronomical Twilight 3:51 AM AKDT 11:20 PM AKDT
Moon 5:46 PM AKDT (9/13) No Moon Set
Length of Visible Light 14h 50m
Length of Day
13h 12m
Waxing Gibbous, 63% of the Moon is Illuminated
Sep 13
Waxing Gibbous
Sep 19
Full
Sep 26
Last Quarter
Oct 4
New
Oct 11
First Quarter

Hourly Weather History & Observations

Time (AKDT) Temp. Windchill Dew Point Humidity Pressure Visibility Wind Dir Wind Speed Gust Speed Precip Events Conditions
12:53 AM 44.1 °F 42.5 °F 35.1 °F 71% 29.91 in 10.0 mi ENE 3.5 mph - N/A   Clear
1:53 AM 44.1 °F 40.8 °F 34.0 °F 68% 29.91 in 10.0 mi ESE 5.8 mph - N/A   Clear
2:53 AM 44.1 °F 40.8 °F 34.0 °F 68% 29.91 in 10.0 mi ESE 5.8 mph - N/A   Clear
3:53 AM 42.1 °F 37.1 °F 34.0 °F 73% 29.91 in 10.0 mi ESE 8.1 mph - N/A   Clear
4:53 AM 39.9 °F - 33.1 °F 77% 29.92 in 10.0 mi Calm Calm - N/A   Clear
5:53 AM 39.0 °F 34.8 °F 34.0 °F 82% 29.94 in 10.0 mi East 5.8 mph - N/A   Clear
6:53 AM 37.0 °F 33.3 °F 33.1 °F 86% 29.94 in 10.0 mi ESE 4.6 mph - N/A   Mostly Cloudy
7:53 AM 39.0 °F 33.4 °F 33.1 °F 79% 29.94 in 10.0 mi ESE 8.1 mph - N/A   Mostly Cloudy
8:53 AM 39.0 °F 36.8 °F 34.0 °F 82% 29.95 in 10.0 mi ESE 3.5 mph - N/A   Mostly Cloudy
9:53 AM 44.1 °F 41.5 °F 35.1 °F 71% 29.94 in 10.0 mi East 4.6 mph - N/A   Overcast
10:53 AM 46.9 °F - 36.0 °F 66% 29.95 in 10.0 mi Calm Calm - N/A   Overcast
11:53 AM 55.0 °F - 35.1 °F 47% 29.94 in 10.0 mi South 23.0 mph 33.4 mph N/A   Overcast
12:53 PM 55.9 °F - 36.0 °F 47% 29.95 in 10.0 mi SSW 11.5 mph - N/A   Overcast
1:53 PM 57.0 °F - 36.0 °F 45% 29.94 in 10.0 mi Calm Calm - N/A   Overcast
2:53 PM 60.1 °F - 34.0 °F 38% 29.93 in 10.0 mi South 8.1 mph - N/A   Mostly Cloudy
3:53 PM 60.1 °F - 32.0 °F 35% 29.92 in 10.0 mi South 9.2 mph - N/A   Scattered Clouds
4:53 PM 59.0 °F - 35.1 °F 41% 29.93 in 10.0 mi West 6.9 mph - N/A   Scattered Clouds
5:53 PM 57.9 °F - 36.0 °F 44% 29.93 in 10.0 mi West 8.1 mph - N/A   Mostly Cloudy
6:53 PM 57.0 °F - 37.0 °F 47% 29.94 in 10.0 mi West 12.7 mph - N/A   Mostly Cloudy
7:53 PM 55.0 °F - 37.9 °F 53% 29.96 in 10.0 mi West 8.1 mph - N/A   Mostly Cloudy
8:53 PM 53.1 °F - 37.0 °F 55% 29.98 in 10.0 mi SW 10.4 mph - N/A   Mostly Cloudy
9:53 PM 51.1 °F - 39.0 °F 63% 29.99 in 10.0 mi SW 6.9 mph - N/A   Overcast
10:53 PM 46.9 °F - 39.0 °F 74% 29.98 in 10.0 mi SW 4.6 mph - N/A   Overcast
11:53 PM 44.1 °F 40.8 °F 37.9 °F 79% 29.98 in 10.0 mi SW 5.8 mph - N/A   Partly Cloudy